This demonstration page uses our WeatherBlox Daily Observations layout. Learn more.

Left ArrowRight Arrow

40.97296, -117.73568

Hourly Observations for August 2, 2016

Temp ( °F °C ) Dew Point ( °F °C ) Humidity (%) Winds ( mph kmh ) Pressure ( in mb ) Visibility ( mi km ) Precip ( " mm )
12:56 am 00:56 Clear 63 17.2 28 -2.2 27 27 E 5 7 29.91 1013 10 16 0.00 0.00
1:56 am 01:56 Clear 63 17.2 25 -3.9 24 24 W 3 6 29.91 1013 10 16 0.00 0.00
2:56 am 02:56 Clear 64 17.8 25 -3.9 23 23 N 6 9 29.88 1012 10 16 0.00 0.00
3:56 am 03:56 Clear 59 15 25 -3.9 27 27 Calm 29.93 1014 10 16 0.00 0.00
4:56 am 04:56 Clear 55 12.8 25 -3.9 31 31 SSE 9 15 29.95 1014 10 16 0.00 0.00
5:56 am 05:56 Sunny 56 13.3 26 -3.3 32 32 SE 3 6 29.96 1014 10 16 0.00 0.00
6:56 am 06:56 Sunny 59 15 24 -4.4 26 26 VRB 3 6 29.97 1015 10 16 0.00 0.00
7:56 am 07:56 Sunny 70 21.1 26 -3.3 19 19 Calm 29.97 1015 10 16 0.00 0.00
8:56 am 08:56 Sunny 79 26.1 22 -5.6 12 12 Calm 29.98 1015 10 16 0.00 0.00
9:56 am 09:56 Sunny 87 30.6 18 -7.8 8 8 WSW 16 26 29.97 1015 10 16 0.00 0.00
10:56 am 10:56 Sunny 90 32.2 20 -6.7 8 8 W 16 26 29.96 1015 10 16 0.00 0.00
11:56 am 11:56 Sunny 89 31.7 23 -5 9 9 SW 8 13 29.96 1015 10 16 0.00 0.00
12:56 pm 12:56 Sunny 89 31.7 26 -3.3 10 10 VRB 5 7 29.94 1014 10 16 0.00 0.00
1:56 pm 13:56 Sunny 95 35 25 -3.9 8 8 undefined N/A 29.91 1013 10 16 0.00 0.00
2:56 pm 14:56 Sunny 96 35.6 21 -6.1 6 6 WSW 9 15 29.88 1012 10 16 0.00 0.00
3:56 pm 15:56 Sunny 96 35.6 18 -7.8 6 6 VRB 7 11 29.87 1011 10 16 0.00 0.00
4:56 pm 16:56 Sunny 96 35.6 18 -7.8 6 6 WNW 16 26 29.87 1011 10 16 0.00 0.00
5:56 pm 17:56 Sunny 95 35 16 -8.9 5 5 W 15 24 29.86 1011 10 16 0.00 0.00
6:56 pm 18:56 Sunny 89 31.7 8 -13.3 5 5 W 13 20 29.87 1012 10 16 0.00 0.00
7:56 pm 19:56 Sunny 83 28.3 13 -10.6 7 7 W 8 13 29.87 1011 10 16 0.00 0.00
8:56 pm 20:56 Clear 70 21.1 10 -12.2 10 10 WSW 8 13 29.88 1012 10 16 0.00 0.00
9:56 pm 21:56 Clear 68 20 12 -11.1 11 11 VRB 6 9 29.90 1012 10 16 0.00 0.00
10:56 pm 22:56 Clear 69 20.6 14 -10 12 12 Calm 29.91 1013 10 16 0.00 0.00
11:56 pm 23:56 Clear 70 21.1 16 -8.9 12 12 NNW 10 17 29.92 1013 10 16 0.00 0.00

Powered by AerisWeather